Starlink 30953

operational
NORAD ID: 58491 Int'l Des: 2023-186 Owner: SPXS Country: US Constellation: starlink
LEOCIRCULAR

关于 Starlink 30953

正在加载描述...

实时位置

正在加载3D地球...

即将过境

高度历史

Altitude vs Time

uPlot chart will show altitude changes over time

两行轨道根数

1 58491U 23186U 25350.14840644 .00004752 00000-0 18212-3 0 9998
2 58491 43.0020 19.2954 0001499 225.1269 134.9461 15.27574995115119
Epoch: Dec 16, 2025 • Age: 21 hours

当前状态

高度 486.8 km
速度 7.62 km/s
星下点 -20.94°S, 119.2°E
发射日期 Dec 3, 2023
运行时间 2 years
类型 internet

技术详情

分类 Payload
质量 730.00 kg
干质量 700.00 kg
总质量 730.00 kg
长度 0.30 m
直径 4.10 m
跨度 29.00 m
形状 Box + pan
制造商 SPXS
平台类型 Starlink V2M
阶段状态 In Orbit
所有者/国家 SPXS/US

大型星座

Loading constellations...